Weather in Rayevo

Russia / Penza Oblast     53°26′48″N   42°24′56″E
temp.,
°C
wind,
m/s
gust,
m/s
humid.,
%
clouds,
%
prec.,
mm/h
press.,
hPa
HPBL,
m
19 january, wed
wed1900:00−3sse1398100 0.7 100964
03:00−6n61096100 2.1 1011302
06:00−9n4895100 0.3 1013184
09:00−9n51094100 0.8 1014323
12:00−9n4692100 0.1 1015271
15:00−9n359386 0.2 1016248
18:00−17nnw2210081 0.0 10189
21:00−20nne1110093 0.0 10199
20 january, thu
thu2000:00−21s1110097 0.0 10199
03:00−21s2210096 0.0 101913
06:00−20ssw33100100 0.0 101838
09:00−16s379875 0.0 1017116
12:00−12ssw499580 0.0 1017229
15:00−12s499559 0.0 1016239
18:00−15s512946 0.0 1016208
21:00−15s6149410 0.0 1015253
21 january, fri
fri2100:00−15s6159215 0.0 1015269
03:00−15s6159062 0.0 1014279
06:00−15sse61588100 0.0 1013283
09:00−13sse71886100 0.0 1012370
12:00−10sse81984100 0.0 1010533
15:00−8sse92093100 0.5 1008679
18:00−7sse81793100 0.4 1007571
21:00−7sse81794100 1.1 1006572
22 january, sat
sat2200:00−5s6994100 0.9 1008317
03:00−10s499751 0.9 1010129
06:00−13sse4109755 0.0 1011138
09:00−13sse4109756 0.0 1014159
12:00−10sse4109488 0.0 1015252
15:00−9sse499490 0.0 1016233
18:00−14se3598100 0.0 101860
21:00−16se2399100 0.0 102031
23 january, sun
sun2300:00−19se2210094 0.0 102218
03:00−19se2210099 0.0 102317
06:00−21se11100100 0.0 102410
09:00−20se11100100 0.1 102614
12:00−12ene119686 0.0 102768
15:00−10ne2395100 0.0 102864
18:00−12ne3696100 0.0 103088
21:00−12nne3794100 0.0 1030129